Temperature
26 26 26 26 26 26 25 25 25 24 22 22 21 21 20 19 19 18 18 17 16 16 16 15 15 15 15 15 14 14 14 14 14 14 14 14 14 14 14 14 13 14 14 14
26 26 26 25 25 25 25 25 24 24 23 23 22 21 20 19 18 18 17 17 16 16 15 15 15 15 14 14 14 14 14 14 13 13 13 13 13 13 13 13 13 13 13 13
25 26 25 24 25 25 25 25 24 23 23 22 21 20 20 19 18 17 17 16 16 15 15 15 15 14 14 14 14 14 13 13 13 13 13 13 13 13 13 13 12 12 13 13
25 25 24 24 25 25 25 24 25 24 23 22 21 20 19 19 18 17 16 16 15 15 15 15 14 14 14 14 13 13 13 13 12 12 12 12 12 12 12 12 12 12 12 12
24 24 24 23 24 24 24 23 24 23 23 22 20 20 19 18 17 16 16 15 15 14 14 14 14 14 13 13 13 13 12 12 12 12 12 12 12 12 12 12 12 12 12 12
24 23 23 24 24 24 24 22 23 23 22 21 20 19 18 17 16 16 15 14 14 14 14 13 13 13 13 13 12 12 12 11 11 11 11 11 11 11 11 11 11 11 11 11
22 23 24 23 23 23 22 22 23 22 22 21 20 19 18 17 16 15 14 14 13 13 13 13 12 12 12 12 12 12 11 11 11 11 11 11 11 11 11 11 11 11 11 11
23 23 22 22 22 22 22 22 22 21 21 20 19 17 17 16 15 14 14 13 13 13 12 12 12 12 12 11 11 11 11 11 11 11 11 11 11 10 10 10 10 10 10 10
23 22 21 21 22 21 21 21 21 20 19 19 18 17 16 15 15 14 13 13 13 12 12 12 12 11 11 11 11 11 10 10 10 10 10 10 10 10 10 10 9 9 10 10
22 21 21 21 21 20 20 20 19 19 18 18 17 16 15 15 14 14 13 13 12 12 12 12 11 11 11 11 10 10 10 10 10 10 10 10 9 9 9 9 9 9 9 9
22 21 21 20 20 19 19 19 18 18 17 17 16 16 15 14 14 13 13 12 12 12 11 11 11 11 11 10 10 10 10 10 10 9 9 9 9 9 9 9 9 9 9 9
21 21 20 19 19 18 18 17 17 17 16 16 16 15 14 14 13 13 12 12 12 11 11 11 11 11 10 10 10 10 9 9 9 9 9 8 8 8 8 8 8 8 8 8
20 20 19 19 18 17 17 17 16 16 16 15 15 14 14 13 13 12 12 12 11 11 11 11 10 10 10 10 10 9 9 9 9 8 8 8 8 8 8 8 8 8 8 8
19 18 18 18 17 16 16 16 15 15 15 14 14 14 13 13 12 12 11 11 11 11 10 10 10 10 10 9 9 9 8 8 8 8 8 8 7 7 8 8 8 8 8 8
18 17 17 16 16 16 15 15 15 14 14 14 13 13 12 12 12 11 11 11 11 10 10 10 10 10 9 9 9 8 8 8 8 7 7 7 7 7 7 7 7 7 7 7
17 16 16 16 15 15 15 14 14 14 14 13 13 12 12 11 11 11 11 10 10 10 10 10 9 9 9 9 8 8 8 7 7 7 7 7 7 7 7 7 7 7 7 7
16 15 15 14 14 14 14 14 13 13 13 13 12 12 11 11 11 10 10 10 10 10 9 9 9 9 9 8 8 7 7 7 7 7 7 7 7 7 7 7 7 7 7 7
15 14 14 14 13 13 13 13 13 12 12 12 12 11 11 11 10 10 10 10 9 9 9 9 9 8 8 8 7 7 7 6 6 6 6 6 6 6 6 6 6 6 6 6
14 14 13 13 13 13 12 12 12 12 12 11 11 11 10 10 10 10 10 9 9 9 9 8 8 8 8 7 7 7 6 6 6 6 6 6 6 6 6 6 6 6 6 6
13 13 13 12 12 12 12 12 11 11 11 11 10 10 10 10 9 9 9 9 9 8 8 8 8 7 7 7 6 6 6 6 5 5 5 5 6 6 6 6 6 6 6 6
12 12 12 12 12 11 11 11 11 10 10 10 10 9 9 9 9 9 8 8 8 8 8 7 7 7 7 6 6 6 5 5 5 5 5 5 5 5 5 5 5 5 5 5
12 11 11 11 11 11 11 10 10 10 10 10 9 9 9 8 8 8 8 8 8 7 7 7 7 6 6 6 6 5 5 5 5 5 5 5 5 5 5 5 5 5 5 5
11 11 11 11 11 10 10 10 10 10 9 9 9 9 8 8 8 8 7 7 7 7 7 6 6 6 6 5 5 5 5 4 4 4 4 5 5 5 4 4 4 4 4 4
10 10 10 10 10 10 10 10 9 9 9 9 8 8 8 8 7 7 7 7 7 6 6 6 6 5 5 5 5 4 4 4 4 4 4 4 4 4 4 4 4 4 4 4
10 10 10 9 9 9 9 9 9 8 8 8 8 8 7 7 7 7 6 6 6 6 6 5 5 5 5 4 4 4 4 4 4 4 4 4 4 4 3 3 3 3 3 3
9 9 9 9 9 8 8 8 8 8 7 7 7 7 7 7 6 6 6 6 5 5 5 5 5 5 4 4 4 4 4 4 4 4 3 3 3 3 3 3 3 3 3 3
8 8 8 8 8 8 7 7 7 7 7 7 6 6 6 6 6 5 5 5 5 5 5 4 4 4 4 4 4 3 3 3 3 3 3 3 3 3 3 3 2 2 2 2
Wind_Speed
3 1 1 3 4 4 6 5 3 3 9 11 11 9 8 7 6 5 5 4 4 4 4 3 4 4 4 5 5 4 4 4 4 6 6 6 6 6 6 5 7 6 7 7
5 5 4 5 6 6 5 3 2 4 4 8 11 9 8 7 6 5 4 4 4 4 4 3 4 4 4 4 4 4 4 5 5 6 6 6 6 7 7 7 7 6 7 8
6 5 6 7 7 8 7 5 5 5 5 12 11 10 8 6 6 4 3 3 3 3 3 3 4 4 4 4 5 4 4 5 5 6 6 6 7 7 7 7 7 7 7 7
7 6 8 2 3 3 3 4 4 5 7 11 9 7 6 7 6 4 3 3 3 3 4 4 4 4 4 4 5 5 5 6 6 6 6 6 6 7 7 7 7 6 7 8
6 7 4 5 5 5 4 4 4 6 8 9 8 7 6 6 5 4 4 3 3 3 4 4 5 5 5 5 5 5 5 6 7 7 7 7 7 7 7 7 7 7 7 8
7 7 5 4 8 5 3 4 6 7 9 9 9 6 5 6 5 5 4 3 3 3 4 4 5 5 5 5 5 5 6 6 7 7 7 7 7 7 6 7 7 8 8 8
9 8 1 8 8 6 4 2 7 7 8 9 7 3 5 7 5 4 3 2 2 2 3 3 4 5 5 5 5 6 6 6 7 7 8 8 6 6 7 7 7 8 9 8
8 8 3 8 6 3 3 7 7 5 5 6 6 6 6 6 4 3 2 1 1 1 2 3 3 4 5 4 5 6 6 6 7 7 8 8 6 6 7 7 7 8 8 8
1 3 7 5 4 5 6 5 5 4 5 6 6 6 5 4 3 2 2 0 1 1 2 3 3 3 5 5 5 6 6 6 7 7 7 6 6 6 7 6 6 6 6 7
1 3 5 5 4 4 3 4 4 4 4 4 4 4 3 3 2 2 1 0 1 2 3 3 4 3 4 5 5 7 7 6 6 7 7 7 6 5 5 6 6 6 7 7
5 2 3 4 4 4 3 3 3 3 2 2 3 3 2 2 2 1 1 1 1 2 3 4 5 4 4 4 6 7 7 7 6 6 6 6 6 6 7 6 6 7 7 7
4 2 2 2 3 4 3 3 2 2 2 1 1 2 2 2 1 1 1 2 2 2 3 5 6 6 5 4 5 6 7 7 6 5 5 6 6 8 10 10 13 13 12 12
3 1 0 2 4 3 4 4 3 2 2 2 2 2 2 1 1 2 2 3 3 4 4 5 6 6 6 5 5 6 7 7 6 6 6 6 7 8 8 9 11 12 13 13
1 0 1 2 3 3 4 4 3 3 3 3 2 1 1 2 2 2 3 4 4 4 5 5 6 6 6 6 5 6 7 8 8 6 6 6 7 8 8 8 8 7 9 11
3 3 3 2 3 4 3 4 4 4 3 3 2 2 2 3 3 3 4 4 4 5 6 6 6 6 6 5 5 6 6 6 6 6 6 8 8 8 8 8 8 8 7 8
4 3 3 4 4 4 4 5 5 5 4 3 3 3 4 4 4 4 4 4 5 6 6 6 6 6 5 5 6 6 6 10 9 7 7 8 8 8 8 8 8 8 8 7
5 5 5 4 4 4 4 5 5 4 4 4 4 4 4 4 5 5 5 5 6 6 6 6 6 5 6 6 6 6 6 7 11 9 8 8 8 8 9 8 8 8 8 9
4 4 4 4 4 4 4 4 4 4 4 4 4 4 4 5 6 5 5 6 6 7 6 6 5 5 6 7 7 6 6 7 7 8 8 8 9 9 9 9 9 10 8 9
3 3 4 4 4 4 4 4 4 4 4 4 4 5 5 6 5 6 6 6 7 7 6 5 6 6 7 7 8 5 7 8 8 9 9 11 11 9 9 9 9 8 8 8
3 3 3 3 3 3 3 4 4 4 4 4 4 5 5 5 5 6 7 7 6 5 5 5 6 7 8 7 8 6 7 9 9 10 10 9 9 9 9 9 9 8 8 8
3 3 3 3 4 4 4 5 4 5 4 4 5 6 6 6 6 6 6 7 6 5 5 7 6 6 6 7 9 7 8 9 10 10 10 10 10 10 9 9 9 8 8 8
3 3 4 4 4 5 5 5 6 6 6 5 6 6 6 7 7 7 8 6 6 7 5 5 5 7 9 10 7 8 9 10 10 9 9 10 9 9 9 10 9 8 8 8
4 4 4 5 6 6 6 6 7 6 6 6 6 7 7 6 5 6 7 6 5 7 6 6 8 12 14 9 7 9 10 10 10 10 9 9 9 9 9 10 9 8 8 8
6 6 6 6 6 7 7 7 6 5 5 6 6 6 6 6 6 6 6 8 8 9 7 8 13 15 13 8 8 9 9 9 9 9 9 9 9 9 9 9 9 9 9 10
7 7 7 7 7 6 7 6 6 6 6 5 6 7 6 5 5 5 6 7 9 9 7 10 14 15 10 8 9 9 9 9 10 10 9 9 9 9 9 9 9 10 9 8
7 6 6 6 6 5 5 5 5 5 5 5 5 5 5 5 5 5 5 7 9 10 8 7 7 9 7 8 8 8 9 10 11 10 9 9 9 9 8 9 12 10 9 8
7 7 5 5 5 4 5 5 5 5 5 6 6 5 5 5 5 6 7 7 7 7 7 7 7 7 7 7 8 8 9 9 9 9 9 8 8 8 9 10 9 9 9 8
Wind_Direction
274 263 291 265 248 242 257 273 276 137 144 161 157 147 139 131 117 106 90 76 66 51 45 28 27 20 19 4 1 2 6 354 339 332 335 336 335 324 315 309 308 307 313 307
253 225 223 241 241 241 248 247 200 153 133 139 143 138 139 136 125 109 87 65 53 44 37 17 15 13 12 356 350 351 356 351 342 340 339 335 329 327 325 316 308 308 309 308
270 227 219 232 222 219 222 213 201 203 159 142 143 149 150 143 131 116 93 67 44 31 26 5 7 12 6 349 343 349 359 354 347 339 335 329 328 324 315 309 302 300 295 295
264 241 244 129 80 140 185 207 187 140 132 143 145 140 137 131 124 112 96 73 42 21 11 1 9 8 356 350 354 0 2 350 342 336 334 324 316 311 307 309 307 300 294 289
266 261 249 168 160 160 178 207 179 159 140 136 133 139 142 124 118 111 94 71 42 15 4 0 4 357 348 347 355 1 355 341 337 334 328 316 310 305 304 306 305 299 295 289
263 262 260 129 131 141 176 204 174 161 148 147 155 178 163 134 117 101 83 62 39 8 358 360 355 346 338 342 353 353 345 334 329 321 316 305 303 304 303 301 297 302 299 293
251 259 264 113 130 151 194 162 137 147 149 162 178 144 119 124 113 104 93 71 34 8 1 352 342 336 337 346 343 337 331 322 315 313 310 303 304 308 307 305 304 304 299 296
230 241 199 131 149 172 94 101 118 123 132 136 120 108 113 121 121 121 111 78 16 357 347 332 329 334 335 335 332 326 317 310 308 307 310 318 310 306 306 306 305 304 303 305
344 78 99 131 117 87 96 113 113 113 114 129 133 131 129 132 133 136 138 113 348 334 315 312 326 337 321 324 323 314 307 305 303 305 308 314 314 313 311 310 306 306 308 309
329 132 136 141 124 111 109 107 99 105 114 134 140 143 141 145 155 159 160 210 303 305 308 317 325 311 308 318 318 315 309 307 309 313 316 320 316 304 304 305 304 307 310 308
257 203 163 169 156 144 125 125 133 130 137 152 155 162 160 176 185 178 206 250 276 296 303 305 305 300 306 313 315 313 313 313 312 313 310 310 307 298 297 288 285 289 289 293
249 198 192 166 145 153 158 172 173 167 173 172 185 191 187 194 177 220 257 274 286 294 297 301 304 306 306 307 310 314 315 313 309 310 307 304 304 303 294 288 288 285 277 281
311 338 328 154 161 171 189 197 199 196 199 210 204 198 204 196 208 242 268 278 285 292 295 300 306 308 306 307 312 312 308 308 309 306 305 304 305 301 301 299 288 285 286 288
343 75 196 177 176 191 202 200 204 211 214 209 203 193 216 241 248 257 269 279 286 289 290 295 299 303 307 308 307 305 306 308 309 302 305 302 296 292 289 293 300 298 292 290
230 227 216 191 192 202 200 201 213 221 223 214 195 205 225 244 255 264 275 283 284 285 289 294 297 298 303 306 307 306 305 300 299 302 298 294 290 288 286 288 290 294 296 296
226 223 204 199 204 207 208 215 224 232 232 228 227 233 239 244 256 265 268 270 276 281 286 291 294 299 306 308 304 299 292 293 299 297 294 292 291 293 292 289 289 290 289 289
214 204 199 205 211 217 221 229 236 241 240 237 239 241 245 248 253 258 263 266 271 276 280 285 289 298 306 307 303 296 291 294 299 298 291 292 294 294 294 288 285 286 286 284
207 204 205 210 212 223 234 239 246 254 255 252 254 253 253 255 258 261 267 273 277 278 281 286 293 303 303 301 299 294 294 294 293 292 292 291 291 291 291 287 284 285 287 287
204 211 217 224 224 227 237 247 255 264 273 273 268 263 262 262 267 273 276 277 279 280 282 286 293 295 294 292 296 289 291 293 295 295 293 292 292 289 290 287 284 284 287 288
212 214 222 229 235 242 251 257 261 263 267 271 271 270 270 272 275 278 279 277 272 273 285 297 297 292 291 293 301 295 295 295 294 293 291 289 289 289 288 288 285 283 283 283
222 225 233 239 242 248 255 258 257 254 256 258 263 267 271 276 277 278 278 278 277 280 287 290 286 282 286 300 302 295 293 291 291 290 290 290 289 289 288 290 289 285 283 283
239 236 240 245 249 255 257 259 260 261 259 257 259 264 269 271 274 275 272 270 273 278 277 277 279 287 298 303 291 289 288 288 287 288 288 287 286 287 287 289 287 284 283 281
255 256 258 259 258 261 264 263 264 264 261 261 263 265 265 266 269 273 279 277 280 281 281 277 283 289 295 294 285 285 285 286 288 288 288 287 287 289 290 291 289 285 282 281
267 267 267 270 271 269 268 269 269 269 267 267 264 265 269 271 269 265 269 276 278 280 277 275 281 287 291 285 281 282 283 285 285 287 289 291 292 292 292 293 294 290 284 282
271 271 269 271 270 270 274 278 280 276 275 273 271 269 268 265 268 275 278 283 286 283 277 282 286 288 285 281 281 283 286 287 290 293 290 289 288 289 290 290 291 288 284 280
268 268 267 267 270 272 274 274 273 273 276 279 278 277 279 278 276 276 278 281 282 284 281 277 276 278 278 281 283 287 289 292 292 290 286 286 287 289 291 294 293 292 288 285
272 269 266 264 263 262 267 269 271 272 274 275 279 282 286 288 287 286 286 284 284 282 281 281 282 282 282 283 284 287 289 289 288 287 288 288 288 288 290 292 293 292 290 287
Height
1473 1473 1475 1478 1480 1480 1483 1483 1489 1492 1497 1500 1503 1507 1511 1514 1516 1518 1520 1520 1520 1520 1519 1519 1518 1517 1516 1514 1513 1512 1510 1508 1507 1505 1504 1502 1500 1499 1497 1495 1494 1492 1490 1489
1475 1472 1475 1479 1479 1480 1481 1482 1485 1489 1495 1494 1500 1506 1510 1513 1515 1517 1518 1519 1519 1519 1519 1518 1517 1516 1514 1513 1512 1510 1509 1507 1505 1503 1501 1499 1497 1496 1494 1492 1490 1489 1487 1485
1479 1472 1476 1484 1477 1478 1480 1479 1483 1490 1492 1493 1499 1504 1507 1510 1513 1515 1517 1518 1518 1518 1517 1517 1516 1514 1513 1511 1510 1509 1507 1505 1503 1501 1499 1496 1495 1493 1490 1489 1487 1485 1483 1482
1478 1479 1491 1479 1470 1471 1476 1478 1479 1483 1487 1492 1497 1502 1506 1509 1512 1514 1515 1516 1516 1516 1516 1515 1514 1513 1511 1510 1509 1507 1505 1503 1501 1498 1496 1494 1492 1489 1487 1486 1484 1481 1480 1478
1479 1482 1480 1476 1472 1473 1478 1481 1479 1483 1487 1493 1498 1502 1506 1508 1510 1512 1513 1514 1514 1514 1514 1513 1512 1511 1509 1508 1506 1505 1503 1500 1498 1496 1493 1491 1488 1486 1484 1482 1480 1478 1476 1474
1479 1485 1485 1474 1470 1472 1477 1484 1479 1481 1486 1492 1497 1502 1504 1506 1508 1510 1511 1512 1512 1512 1511 1510 1509 1508 1507 1506 1504 1502 1500 1498 1495 1493 1491 1488 1486 1483 1481 1479 1476 1474 1472 1470
1481 1481 1473 1471 1471 1474 1486 1483 1478 1481 1486 1490 1494 1498 1501 1503 1506 1507 1509 1509 1509 1509 1508 1508 1507 1506 1504 1503 1501 1499 1497 1495 1493 1490 1488 1485 1483 1480 1478 1475 1472 1470 1467 1466
1475 1480 1479 1472 1473 1476 1478 1477 1480 1483 1486 1490 1494 1497 1499 1501 1504 1505 1506 1507 1507 1506 1506 1505 1504 1503 1502 1500 1498 1496 1494 1492 1489 1487 1485 1482 1479 1477 1474 1471 1469 1466 1463 1461
1468 1474 1471 1472 1473 1475 1477 1479 1482 1484 1487 1490 1493 1496 1498 1500 1502 1503 1504 1504 1504 1504 1503 1502 1501 1500 1499 1497 1495 1493 1491 1488 1486 1484 1481 1479 1476 1473 1470 1468 1465 1462 1460 1457
1468 1469 1470 1472 1474 1476 1478 1480 1483 1485 1488 1490 1492 1495 1497 1499 1500 1501 1501 1501 1501 1501 1500 1499 1498 1497 1495 1494 1492 1490 1487 1485 1483 1480 1477 1475 1472 1469 1467 1464 1461 1459 1456 1453
1467 1469 1471 1473 1474 1476 1479 1481 1483 1485 1487 1489 1491 1493 1495 1496 1497 1498 1499 1499 1498 1498 1497 1496 1495 1493 1492 1490 1488 1486 1484 1481 1479 1476 1473 1470 1468 1466 1463 1460 1458 1455 1452 1449
1467 1467 1469 1471 1474 1476 1478 1480 1482 1484 1486 1488 1489 1491 1492 1493 1494 1495 1496 1496 1495 1494 1493 1492 1491 1489 1488 1486 1484 1482 1479 1477 1475 1472 1469 1466 1463 1460 1457 1456 1453 1451 1448 1446
1464 1465 1467 1469 1472 1475 1477 1479 1481 1482 1484 1485 1487 1488 1489 1490 1491 1492 1492 1492 1491 1491 1490 1488 1487 1485 1484 1482 1480 1478 1475 1473 1470 1467 1464 1461 1458 1455 1451 1448 1447 1445 1442 1440
1464 1465 1467 1468 1471 1473 1475 1477 1479 1480 1482 1483 1484 1485 1486 1487 1488 1488 1488 1488 1487 1487 1485 1484 1482 1480 1479 1477 1475 1473 1470 1468 1465 1463 1460 1457 1454 1450 1447 1444 1440 1437 1436 1434
1463 1464 1466 1467 1469 1471 1473 1475 1476 1478 1479 1480 1481 1482 1483 1484 1484 1484 1484 1484 1483 1482 1481 1479 1477 1476 1474 1472 1470 1467 1465 1463 1460 1458 1455 1451 1448 1445 1442 1439 1436 1433 1430 1427
1461 1462 1463 1465 1467 1469 1470 1472 1473 1475 1476 1477 1478 1479 1479 1480 1480 1480 1479 1479 1478 1477 1476 1474 1473 1471 1469 1467 1464 1462 1460 1458 1455 1452 1449 1446 1443 1440 1437 1434 1430 1427 1424 1421
1458 1459 1461 1463 1464 1466 1467 1469 1470 1472 1473 1473 1474 1475 1475 1475 1475 1475 1475 1474 1473 1472 1471 1470 1468 1466 1464 1462 1459 1457 1454 1452 1449 1446 1443 1440 1437 1434 1431 1428 1424 1421 1418 1416
1455 1457 1459 1460 1462 1463 1465 1466 1467 1468 1469 1469 1470 1470 1470 1470 1470 1470 1470 1469 1468 1467 1466 1464 1462 1460 1458 1456 1454 1451 1448 1446 1443 1440 1437 1434 1431 1427 1424 1421 1418 1415 1411 1409
1453 1455 1456 1458 1459 1460 1462 1463 1463 1464 1465 1465 1465 1466 1466 1466 1465 1465 1465 1464 1462 1461 1460 1458 1456 1454 1452 1450 1448 1445 1442 1439 1436 1433 1430 1427 1424 1420 1417 1414 1411 1408 1405 1402
1451 1452 1454 1455 1456 1457 1458 1459 1460 1460 1461 1461 1461 1461 1461 1460 1460 1460 1459 1458 1457 1455 1454 1452 1450 1448 1446 1444 1441 1439 1436 1433 1430 1426 1423 1420 1416 1413 1409 1406 1404 1401 1398 1395
1448 1449 1451 1452 1453 1454 1455 1456 1456 1456 1456 1456 1456 1456 1456 1455 1455 1454 1453 1452 1451 1449 1448 1446 1444 1442 1440 1437 1435 1432 1429 1426 1422 1419 1416 1412 1409 1405 1402 1399 1396 1393 1390 1387
1446 1447 1448 1449 1449 1450 1451 1451 1452 1452 1452 1451 1451 1451 1451 1450 1449 1448 1447 1446 1444 1443 1441 1439 1437 1435 1433 1431 1428 1424 1421 1418 1415 1412 1408 1405 1401 1398 1394 1391 1388 1385 1382 1379
1443 1444 1444 1445 1446 1446 1447 1447 1447 1447 1446 1446 1446 1445 1445 1444 1443 1442 1440 1440 1438 1436 1434 1432 1430 1428 1426 1423 1420 1417 1414 1411 1407 1404 1401 1398 1394 1391 1387 1383 1380 1377 1374 1371
1440 1441 1441 1441 1441 1442 1441 1441 1441 1441 1441 1440 1440 1439 1439 1438 1436 1436 1434 1433 1432 1430 1427 1425 1423 1420 1418 1415 1412 1409 1406 1403 1400 1397 1393 1390 1387 1383 1379 1376 1372 1369 1366 1363
1436 1437 1437 1437 1437 1436 1436 1436 1436 1436 1435 1435 1434 1434 1433 1432 1431 1429 1428 1426 1425 1422 1420 1418 1415 1413 1411 1407 1405 1402 1399 1396 1392 1389 1385 1382 1379 1375 1371 1368 1364 1361 1358 1354
1432 1432 1432 1432 1432 1431 1431 1431 1430 1430 1429 1429 1428 1427 1427 1426 1424 1423 1421 1419 1418 1416 1413 1411 1409 1406 1403 1400 1397 1394 1391 1388 1384 1381 1378 1375 1371 1367 1364 1360 1357 1353 1350 1347
1427 1427 1426 1426 1426 1426 1425 1425 1424 1424 1424 1423 1422 1421 1420 1419 1418 1416 1414 1413 1411 1409 1407 1404 1402 1399 1396 1393 1390 1387 1384 1380 1377 1374 1370 1367 1364 1360 1356 1353 1349 1345 1342 1339